| time (UTC) | temp F | wind direction | speed MPH | gust MPH | rain 1hr in | rain 24hr in | rain mn in | humidity % | barometer mb |
| 20260903092412 | 61 | 121 | 0.0 | 1.0 | 0.00 | 0.02 | 0.00 | 96 | 1015.0 |
| 20260903091413 | 61 | 145 | 0.0 | 1.0 | 0.00 | 0.02 | 0.00 | 96 | 1015.0 |
| 20260903090412 | 61 | 139 | 0.0 | 1.0 | 0.00 | 0.02 | 0.00 | 97 | 1015.0 |
| 20260903085913 | 61 | 136 | 0.0 | 1.0 | 0.00 | 0.02 | 0.00 | 97 | 1015.1 |
| 20260903085413 | 61 | 141 | 0.0 | 1.0 | 0.00 | 0.02 | 0.00 | 97 | 1015.0 |
| 20260903084414 | 61 | 164 | 0.0 | 1.0 | 0.00 | 0.02 | 0.00 | 97 | 1015.0 |
| 20260903083912 | 61 | 138 | 0.0 | 1.0 | 0.00 | 0.02 | 0.00 | 96 | 1015.0 |
| 20260903083413 | 61 | 156 | 0.0 | 1.0 | 0.00 | 0.02 | 0.00 | 96 | 1014.9 |
| 20260903082412 | 61 | 149 | 0.0 | 1.0 | 0.00 | 0.02 | 0.00 | 96 | 1014.8 |
| 20260903081412 | 61 | 151 | 0.0 | 1.0 | 0.00 | 0.02 | 0.00 | 96 | 1014.8 |
| 20260903080913 | 62 | 150 | 0.0 | 1.0 | 0.00 | 0.02 | 0.00 | 96 | 1014.9 |
| 20260903080412 | 62 | 162 | 0.0 | 1.0 | 0.00 | 0.02 | 0.00 | 96 | 1014.8 |
| 20260903075912 | 62 | 135 | 0.0 | 1.0 | 0.00 | 0.02 | 0.00 | 96 | 1014.7 |
| 20260903075412 | 62 | 142 | 0.0 | 1.0 | 0.00 | 0.02 | 0.00 | 96 | 1014.7 |
| 20260903074912 | 62 | 144 | 1.0 | 1.0 | 0.00 | 0.02 | 0.00 | 96 | 1014.8 |
| 20260903074412 | 62 | 129 | 0.0 | 1.0 | 0.00 | 0.02 | 0.00 | 96 | 1014.7 |
| 20260903073912 | 62 | 142 | 0.0 | 1.0 | 0.00 | 0.02 | 0.00 | 97 | 1014.7 |
| 20260903073411 | 62 | 135 | 0.0 | 1.0 | 0.00 | 0.02 | 0.00 | 97 | 1014.6 |
| 20260903072912 | 62 | 142 | 0.0 | 1.0 | 0.00 | 0.02 | 0.00 | 97 | 1014.8 |
| 20260903071912 | 62 | 129 | 0.0 | 1.0 | 0.00 | 0.02 | 0.00 | 96 | 1014.6 |
| 20260903071413 | 62 | 149 | 0.0 | 1.0 | 0.00 | 0.02 | 0.00 | 96 | 1014.6 |
| 20260903070919 | 62 | 110 | 0.0 | 1.0 | 0.00 | 0.02 | 0.00 | 96 | 1014.5 |
| 20260903070412 | 62 | 142 | 0.0 | 2.0 | 0.00 | 0.02 | 0.00 | 96 | 1014.6 |
| 20260903065912 | 62 | 152 | 0.0 | 1.0 | 0.00 | 0.02 | 0.00 | 96 | 1014.5 |
| 20260903064412 | 62 | 123 | 0.0 | 1.0 | 0.00 | 0.02 | 0.00 | 97 | 1014.4 |
| 20260903063926 | 62 | 154 | 0.0 | 1.0 | 0.00 | 0.02 | 0.00 | 96 | 1014.4 |
| 20260903062412 | 62 | 121 | 0.0 | 1.0 | 0.00 | 0.02 | 0.00 | 96 | 1014.2 |
| 20260903061928 | 62 | 133 | 0.0 | 1.0 | 0.00 | 0.02 | 0.00 | 96 | 1014.3 |
| 20260903061411 | 62 | 142 | 0.0 | 1.0 | 0.00 | 0.02 | 0.00 | 96 | 1014.2 |
| 20260903060912 | 62 | 141 | 0.0 | 1.0 | 0.00 | 0.02 | 0.00 | 96 | 1014.1 |
| 20260903060412 | 62 | 151 | 0.0 | 2.0 | 0.00 | 0.02 | 0.00 | 96 | 1014.1 |
| 20260903055912 | 62 | 145 | 0.0 | 1.0 | 0.00 | 0.02 | 0.00 | 96 | 1014.1 |
| 20260903055412 | 62 | 133 | 0.0 | 1.0 | 0.00 | 0.02 | 0.00 | 96 | 1014.1 |
| 20260903054912 | 62 | 137 | 0.0 | 2.0 | 0.00 | 0.02 | 0.00 | 96 | 1014.0 |
| 20260903054412 | 62 | 143 | 0.0 | 2.0 | 0.00 | 0.02 | 0.00 | 96 | 1014.0 |
| 20260903053912 | 62 | 148 | 0.0 | 1.0 | 0.00 | 0.02 | 0.00 | 96 | 1014.0 |
| 20260903053411 | 61 | 146 | 0.0 | 1.0 | 0.00 | 0.02 | 0.00 | 96 | 1014.0 |
| 20260903052913 | 62 | 155 | 0.0 | 1.0 | 0.00 | 0.02 | 0.00 | 96 | 1013.9 |
| 20260903052412 | 62 | 201 | 0.0 | 1.0 | 0.00 | 0.02 | 0.00 | 95 | 1013.9 |
| 20260903051927 | 62 | 164 | 0.0 | 1.0 | 0.00 | 0.02 | 0.00 | 95 | 1013.9 |
| 20260903051412 | 62 | 167 | 0.0 | 1.0 | 0.00 | 0.02 | 0.00 | 95 | 1013.9 |
| 20260903050915 | 62 | 151 | 0.0 | 1.0 | 0.00 | 0.02 | 0.00 | 95 | 1013.9 |
| 20260903045412 | 62 | 159 | 0.0 | 1.0 | 0.00 | 0.02 | 0.00 | 95 | 1014.0 |
| 20260903044412 | 62 | 150 | 0.0 | 1.0 | 0.00 | 0.02 | 0.00 | 95 | 1013.9 |
| 20260903043412 | 62 | 151 | 0.0 | 1.0 | 0.00 | 0.02 | 0.00 | 95 | 1013.9 |
| 20260903042912 | 62 | 132 | 0.0 | 1.0 | 0.00 | 0.02 | 0.00 | 95 | 1014.0 |
| 20260903042412 | 62 | 108 | 0.0 | 1.0 | 0.00 | 0.02 | 0.00 | 95 | 1013.9 |
| 20260903041911 | 62 | 127 | 0.0 | 1.0 | 0.00 | 0.02 | 0.00 | 95 | 1013.8 |
| 20260903041411 | 63 | 126 | 0.0 | 1.0 | 0.00 | 0.02 | 0.00 | 95 | 1013.8 |
| 20260903040914 | 63 | 185 | 0.0 | 1.0 | 0.00 | 0.02 | 0.00 | 95 | 1013.8 |
| 20260903040412 | 63 | 149 | 0.0 | 1.0 | 0.00 | 0.02 | 0.00 | 94 | 1013.7 |
| 20260903035912 | 63 | 149 | 0.0 | 1.0 | 0.00 | 0.02 | 0.02 | 95 | 1013.7 |
| 20260903035412 | 63 | 148 | 0.0 | 1.0 | 0.00 | 0.02 | 0.02 | 95 | 1013.8 |
| 20260903034911 | 63 | 128 | 0.0 | 1.0 | 0.00 | 0.02 | 0.02 | 95 | 1013.9 |
| 20260903033912 | 63 | 158 | 0.0 | 1.0 | 0.00 | 0.02 | 0.02 | 94 | 1013.9 |
| 20260903032912 | 64 | 155 | 0.0 | 1.0 | 0.00 | 0.02 | 0.02 | 94 | 1013.7 |
| 20260903032412 | 64 | 135 | 0.0 | 1.0 | 0.00 | 0.02 | 0.02 | 94 | 1013.8 |
| 20260903030912 | 64 | 143 | 0.0 | 1.0 | 0.00 | 0.02 | 0.02 | 94 | 1013.8 |
| 20260903030426 | 64 | 139 | 0.0 | 1.0 | 0.00 | 0.02 | 0.02 | 94 | 1013.8 |
| 20260903025912 | 64 | 128 | 0.0 | 1.0 | 0.00 | 0.02 | 0.02 | 94 | 1013.8 |
| 20260903025412 | 64 | 150 | 0.0 | 1.0 | 0.00 | 0.02 | 0.02 | 94 | 1013.8 |
| 20260903024912 | 64 | 147 | 0.0 | 1.0 | 0.00 | 0.02 | 0.02 | 93 | 1013.8 |
| 20260903024413 | 64 | 135 | 0.0 | 1.0 | 0.00 | 0.02 | 0.02 | 93 | 1013.8 |
| 20260903023412 | 65 | 127 | 0.0 | 1.0 | 0.00 | 0.02 | 0.02 | 93 | 1013.7 |
| 20260903022913 | 65 | 118 | 0.0 | 1.0 | 0.00 | 0.02 | 0.02 | 93 | 1013.8 |
| 20260903022412 | 65 | 121 | 0.0 | 1.0 | 0.00 | 0.02 | 0.02 | 92 | 1013.8 |
| 20260903021912 | 65 | 106 | 0.0 | 1.0 | 0.00 | 0.02 | 0.02 | 92 | 1013.8 |
| 20260903021412 | 65 | 107 | 0.0 | 1.0 | 0.00 | 0.02 | 0.02 | 92 | 1013.7 |
| 20260903020911 | 65 | 107 | 0.0 | 1.0 | 0.00 | 0.02 | 0.02 | 92 | 1013.7 |
| 20260903015412 | 66 | 149 | 0.0 | 1.0 | 0.00 | 0.02 | 0.02 | 92 | 1013.6 |
| 20260903014912 | 66 | 125 | 0.0 | 2.0 | 0.00 | 0.02 | 0.02 | 91 | 1013.5 |
| 20260903014411 | 66 | 128 | 0.0 | 1.0 | 0.00 | 0.02 | 0.02 | 91 | 1013.5 |
| 20260903013911 | 66 | 125 | 0.0 | 1.0 | 0.00 | 0.02 | 0.02 | 91 | 1013.5 |
| 20260903013411 | 66 | 154 | 0.0 | 1.0 | 0.00 | 0.02 | 0.02 | 91 | 1013.5 |
| 20260903012927 | 66 | 50 | 1.0 | 1.0 | 0.00 | 0.02 | 0.02 | 91 | 1013.7 |
| 20260903012412 | 66 | 124 | 0.0 | 2.0 | 0.00 | 0.02 | 0.02 | 91 | 1013.7 |
| 20260903004415 | 68 | 85 | 0.0 | 1.0 | 0.00 | 0.02 | 0.02 | 88 | 1013.1 |
| 20260903003428 | 69 | 98 | 0.0 | 1.0 | 0.00 | 0.02 | 0.02 | 87 | 1012.9 |
| 20260903002915 | 69 | 138 | 0.0 | 1.0 | 0.00 | 0.02 | 0.02 | 88 | 1012.9 |
| 20260903002410 | 69 | 134 | 0.0 | 1.0 | 0.00 | 0.02 | 0.02 | 87 | 1012.8 |
| 20260903001909 | 69 | 109 | 0.0 | 1.0 | 0.00 | 0.02 | 0.02 | 87 | 1012.8 |
| 20260903000910 | 69 | 135 | 0.0 | 2.0 | 0.00 | 0.02 | 0.02 | 87 | 1012.8 |
| 20260903000410 | 69 | 135 | 0.0 | 2.0 | 0.00 | 0.02 | 0.02 | 87 | 1012.9 |
| 20260902235410 | 70 | 171 | 0.0 | 3.0 | 0.00 | 0.02 | 0.02 | 86 | 1012.8 |
| 20260902234909 | 70 | 144 | 0.0 | 2.0 | 0.00 | 0.02 | 0.02 | 85 | 1012.7 |
| 20260902234415 | 70 | 158 | 0.0 | 2.0 | 0.00 | 0.02 | 0.02 | 85 | 1012.8 |
| 20260902233910 | 70 | 143 | 0.0 | 2.0 | 0.00 | 0.02 | 0.02 | 85 | 1012.7 |
| 20260902233410 | 70 | 133 | 0.0 | 2.0 | 0.00 | 0.02 | 0.02 | 84 | 1012.8 |
| 20260902232915 | 71 | 171 | 1.0 | 2.0 | 0.00 | 0.02 | 0.02 | 84 | 1012.7 |
| 20260902232409 | 71 | 182 | 1.0 | 2.0 | 0.00 | 0.02 | 0.02 | 84 | 1012.8 |
| 20260902231909 | 71 | 134 | 0.0 | 2.0 | 0.00 | 0.02 | 0.02 | 84 | 1012.8 |
| 20260902231417 | 71 | 127 | 0.0 | 2.0 | 0.00 | 0.02 | 0.02 | 83 | 1012.7 |
| 20260902230908 | 71 | 152 | 0.0 | 2.0 | 0.00 | 0.02 | 0.02 | 82 | 1012.8 |
| 20260902230408 | 71 | 145 | 1.0 | 2.0 | 0.00 | 0.02 | 0.02 | 82 | 1012.8 |
| 20260902225425 | 72 | 119 | 0.0 | 2.0 | 0.00 | 0.02 | 0.02 | 82 | 1012.8 |
| 20260902224910 | 72 | 164 | 0.0 | 2.0 | 0.00 | 0.02 | 0.02 | 82 | 1012.8 |
| 20260902224410 | 72 | 165 | 1.0 | 2.0 | 0.00 | 0.02 | 0.02 | 82 | 1012.7 |
| 20260902223910 | 72 | 122 | 1.0 | 2.0 | 0.00 | 0.02 | 0.02 | 81 | 1012.6 |
| 20260902223409 | 72 | 57 | 1.0 | 2.0 | 0.00 | 0.02 | 0.02 | 82 | 1012.6 |
| 20260902222916 | 72 | 94 | 0.0 | 2.0 | 0.00 | 0.02 | 0.02 | 81 | 1012.6 |
| 20260902222410 | 72 | 135 | 0.0 | 2.0 | 0.00 | 0.02 | 0.02 | 81 | 1012.6 |
| 20260902221910 | 72 | 141 | 0.0 | 1.0 | 0.00 | 0.02 | 0.02 | 82 | 1012.6 |
| 20260902221408 | 73 | 141 | 0.0 | 2.0 | 0.00 | 0.02 | 0.02 | 81 | 1012.6 |
| 20260902220909 | 73 | 278 | 0.0 | 1.0 | 0.00 | 0.02 | 0.02 | 81 | 1012.7 |
| 20260902220410 | 73 | 148 | 0.0 | 2.0 | 0.00 | 0.02 | 0.02 | 80 | 1012.7 |
| 20260902215916 | 73 | 128 | 0.0 | 1.0 | 0.00 | 0.02 | 0.02 | 80 | 1012.6 |
| 20260902215409 | 74 | 30 | 0.0 | 1.0 | 0.00 | 0.02 | 0.02 | 79 | 1012.7 |
| 20260902214909 | 74 | 77 | 0.0 | 1.0 | 0.00 | 0.02 | 0.02 | 78 | 1012.7 |
| 20260902214409 | 74 | 57 | 0.0 | 1.0 | 0.00 | 0.02 | 0.02 | 77 | 1012.8 |
| 20260902213908 | 74 | 137 | 0.0 | 1.0 | 0.00 | 0.02 | 0.02 | 76 | 1012.7 |
| 20260902213409 | 74 | 70 | 0.0 | 2.0 | 0.00 | 0.02 | 0.02 | 76 | 1012.7 |
| 20260902212915 | 74 | 11 | 0.0 | 2.0 | 0.00 | 0.02 | 0.02 | 77 | 1012.7 |
| 20260902212409 | 75 | 13 | 1.0 | 2.0 | 0.00 | 0.02 | 0.02 | 76 | 1012.6 |
| 20260902211910 | 75 | 26 | 1.0 | 2.0 | 0.00 | 0.02 | 0.02 | 76 | 1012.7 |
| 20260902211415 | 75 | 0 | 0.0 | 2.0 | 0.00 | 0.02 | 0.02 | 76 | 1012.7 |
| 20260902210909 | 75 | 351 | 0.0 | 2.0 | 0.00 | 0.02 | 0.02 | 76 | 1012.7 |
| 20260902210409 | 75 | 41 | 0.0 | 1.0 | 0.00 | 0.02 | 0.02 | 75 | 1012.7 |
| 20260902205915 | 76 | 76 | 0.0 | 2.0 | 0.00 | 0.02 | 0.02 | 75 | 1012.7 |
| 20260902205410 | 76 | 136 | 0.0 | 1.0 | 0.00 | 0.02 | 0.02 | 74 | 1012.6 |
| 20260902204909 | 76 | 35 | 0.0 | 2.0 | 0.00 | 0.02 | 0.02 | 74 | 1012.6 |
| 20260902204415 | 76 | 2 | 1.0 | 2.0 | 0.00 | 0.02 | 0.02 | 75 | 1012.6 |
| 20260902203909 | 77 | 358 | 1.0 | 2.0 | 0.00 | 0.02 | 0.02 | 73 | 1012.7 |
| 20260902203409 | 77 | 20 | 1.0 | 3.0 | 0.00 | 0.02 | 0.02 | 73 | 1012.8 |
| 20260902202909 | 78 | 16 | 1.0 | 3.0 | 0.00 | 0.02 | 0.02 | 72 | 1012.8 |
| 20260902202410 | 78 | 8 | 0.0 | 2.0 | 0.00 | 0.02 | 0.02 | 73 | 1013.0 |
| 20260902201910 | 77 | 4 | 0.0 | 1.0 | 0.00 | 0.02 | 0.02 | 73 | 1013.1 |
| 20260902201410 | 78 | 11 | 0.0 | 1.0 | 0.00 | 0.02 | 0.02 | 73 | 1013.1 |
| 20260902200409 | 78 | 12 | 1.0 | 3.0 | 0.00 | 0.02 | 0.02 | 72 | 1013.1 |
| 20260902195909 | 78 | 12 | 1.0 | 2.0 | 0.00 | 0.02 | 0.02 | 71 | 1013.2 |
| 20260902195410 | 78 | 18 | 0.0 | 2.0 | 0.00 | 0.02 | 0.02 | 73 | 1013.4 |
| 20260902194909 | 78 | 30 | 0.0 | 2.0 | 0.00 | 0.02 | 0.02 | 74 | 1013.4 |
| 20260902194409 | 78 | 12 | 0.0 | 2.0 | 0.00 | 0.02 | 0.02 | 73 | 1013.4 |
| 20260902193910 | 78 | 100 | 0.0 | 2.0 | 0.00 | 0.02 | 0.02 | 75 | 1013.6 |
| 20260902193408 | 78 | 59 | 0.0 | 1.0 | 0.00 | 0.02 | 0.02 | 73 | 1013.7 |
| 20260902192909 | 78 | 75 | 0.0 | 2.0 | 0.00 | 0.02 | 0.02 | 75 | 1013.8 |
| 20260902192409 | 78 | 69 | 1.0 | 3.0 | 0.00 | 0.02 | 0.02 | 76 | 1013.8 |
| 20260902191910 | 78 | 246 | 0.0 | 2.0 | 0.00 | 0.02 | 0.02 | 74 | 1013.7 |
| 20260902191409 | 78 | 33 | 0.0 | 3.0 | 0.00 | 0.02 | 0.02 | 75 | 1013.8 |
| 20260902190909 | 78 | 59 | 0.0 | 2.0 | 0.00 | 0.02 | 0.02 | 75 | 1013.9 |
| 20260902190410 | 77 | 165 | 1.0 | 2.0 | 0.00 | 0.02 | 0.02 | 75 | 1013.9 |
| 20260902185409 | 77 | 253 | 0.0 | 2.0 | 0.00 | 0.02 | 0.02 | 75 | 1013.7 |
| 20260902184409 | 76 | 123 | 0.0 | 2.0 | 0.00 | 0.02 | 0.02 | 76 | 1013.6 |
| 20260902183909 | 76 | 115 | 0.0 | 2.0 | 0.00 | 0.02 | 0.02 | 76 | 1013.6 |
| 20260902183409 | 76 | 32 | 0.0 | 2.0 | 0.00 | 0.02 | 0.02 | 77 | 1013.7 |
| 20260902182909 | 76 | 54 | 0.0 | 2.0 | 0.00 | 0.02 | 0.02 | 77 | 1013.7 |
| 20260902182409 | 76 | 193 | 0.0 | 3.0 | 0.00 | 0.02 | 0.02 | 78 | 1013.7 |
| 20260902181908 | 75 | 123 | 0.0 | 2.0 | 0.00 | 0.02 | 0.02 | 80 | 1013.7 |
| 20260902181409 | 75 | 123 | 0.0 | 1.0 | 0.00 | 0.02 | 0.02 | 83 | 1013.6 |
| 20260902180909 | 74 | 163 | 0.0 | 1.0 | 0.00 | 0.02 | 0.02 | 83 | 1013.4 |
| 20260902175415 | 74 | 36 | 0.0 | 2.0 | 0.00 | 0.02 | 0.02 | 83 | 1013.1 |
| 20260902174908 | 74 | 25 | 0.0 | 2.0 | 0.00 | 0.02 | 0.02 | 83 | 1013.1 |
| 20260902174408 | 74 | 23 | 0.0 | 2.0 | 0.00 | 0.02 | 0.02 | 81 | 1013.2 |
| 20260902173914 | 75 | 52 | 0.0 | 2.0 | 0.00 | 0.02 | 0.02 | 80 | 1013.2 |
| 20260902173410 | 75 | 204 | 0.0 | 2.0 | 0.00 | 0.02 | 0.02 | 82 | 1013.3 |
| 20260902172909 | 75 | 110 | 0.0 | 2.0 | 0.00 | 0.02 | 0.02 | 82 | 1013.4 |
| 20260902172415 | 75 | 45 | 1.0 | 3.0 | 0.00 | 0.02 | 0.02 | 84 | 1013.5 |
| 20260902171910 | 74 | 113 | 0.0 | 2.0 | 0.00 | 0.02 | 0.02 | 85 | 1013.5 |
| 20260902171409 | 73 | 87 | 0.0 | 1.0 | 0.00 | 0.02 | 0.02 | 88 | 1013.5 |
| 20260902170916 | 73 | 195 | 0.0 | 2.0 | 0.00 | 0.02 | 0.02 | 85 | 1013.3 |
| 20260902170408 | 73 | 53 | 1.0 | 2.0 | 0.00 | 0.02 | 0.02 | 83 | 1013.4 |
| 20260902165412 | 72 | 40 | 0.0 | 2.0 | 0.00 | 0.02 | 0.02 | 86 | 1013.0 |
| 20260902164409 | 71 | 122 | 0.0 | 2.0 | 0.00 | 0.02 | 0.02 | 87 | 1013.2 |
| 20260902163915 | 71 | 38 | 1.0 | 2.0 | 0.00 | 0.02 | 0.02 | 89 | 1013.3 |
| 20260902163409 | 70 | 149 | 0.0 | 2.0 | 0.00 | 0.02 | 0.02 | 92 | 1013.2 |
| 20260902162411 | 70 | 331 | 0.0 | 2.0 | 0.00 | 0.02 | 0.02 | 93 | 1013.3 |
| 20260902161909 | 69 | 70 | 0.0 | 1.0 | 0.00 | 0.02 | 0.02 | 93 | 1013.3 |
| 20260902161408 | 69 | 173 | 0.0 | 2.0 | 0.00 | 0.02 | 0.02 | 95 | 1013.2 |
| 20260902160909 | 69 | 128 | 1.0 | 2.0 | 0.00 | 0.02 | 0.02 | 95 | 1013.4 |
| 20260902160408 | 69 | 99 | 1.0 | 2.0 | 0.00 | 0.02 | 0.02 | 96 | 1013.5 |
| 20260902155409 | 69 | 161 | 1.0 | 2.0 | 0.00 | 0.02 | 0.02 | 97 | 1013.2 |
| 20260902154909 | 69 | 166 | 1.0 | 2.0 | 0.00 | 0.02 | 0.02 | 97 | 1013.2 |
| 20260902154409 | 68 | 79 | 1.0 | 2.0 | 0.00 | 0.02 | 0.02 | 97 | 1013.5 |
| 20260902153909 | 68 | 132 | 1.0 | 2.0 | 0.00 | 0.02 | 0.02 | 97 | 1013.5 |
| 20260902153409 | 68 | 119 | 1.0 | 2.0 | 0.00 | 0.02 | 0.02 | 97 | 1013.7 |
| 20260902152909 | 68 | 97 | 1.0 | 3.0 | 0.00 | 0.02 | 0.02 | 97 | 1013.9 |
| 20260902152410 | 68 | 194 | 1.0 | 2.0 | 0.00 | 0.02 | 0.02 | 97 | 1013.8 |
| 20260902151909 | 68 | 160 | 1.0 | 3.0 | 0.00 | 0.02 | 0.02 | 97 | 1014.0 |
| 20260902150909 | 69 | 184 | 1.0 | 2.0 | 0.00 | 0.02 | 0.02 | 98 | 1013.2 |
| 20260902150409 | 69 | 209 | 1.0 | 2.0 | 0.00 | 0.02 | 0.02 | 98 | 1013.2 |
| 20260902145908 | 69 | 208 | 1.0 | 2.0 | 0.01 | 0.02 | 0.02 | 98 | 1013.0 |
| 20260902145409 | 68 | 251 | 1.0 | 2.0 | 0.01 | 0.02 | 0.02 | 98 | 1012.4 |
| 20260902144909 | 68 | 139 | 1.0 | 2.0 | 0.01 | 0.02 | 0.02 | 98 | 1012.5 |
| 20260902144409 | 68 | 51 | 1.0 | 2.0 | 0.01 | 0.02 | 0.02 | 98 | 1012.5 |
| 20260902142909 | 67 | 228 | 1.0 | 2.0 | 0.02 | 0.02 | 0.02 | 98 | 1011.8 |
| 20260902142409 | 66 | 91 | 1.0 | 2.0 | 0.02 | 0.02 | 0.02 | 97 | 1011.3 |
| 20260902141909 | 66 | 174 | 1.0 | 2.0 | 0.02 | 0.02 | 0.02 | 97 | 1011.3 |
| 20260902141408 | 66 | 11 | 0.0 | 2.0 | 0.02 | 0.02 | 0.02 | 97 | 1011.1 |
| 20260902140908 | 66 | 73 | 0.0 | 2.0 | 0.02 | 0.02 | 0.02 | 97 | 1012.0 |
| 20260902140409 | 66 | 142 | 1.0 | 2.0 | 0.02 | 0.02 | 0.02 | 97 | 1012.8 |
| 20260902135409 | 67 | 82 | 1.0 | 2.0 | 0.01 | 0.01 | 0.01 | 97 | 1013.6 |
| 20260902134908 | 67 | 69 | 1.0 | 2.0 | 0.01 | 0.01 | 0.01 | 97 | 1014.1 |
| 20260902134409 | 67 | 116 | 0.0 | 2.0 | 0.01 | 0.01 | 0.01 | 97 | 1014.3 |
| 20260902133908 | 67 | 146 | 1.0 | 3.0 | 0.00 | 0.00 | 0.00 | 97 | 1014.7 |
| 20260902132908 | 68 | 214 | 0.0 | 2.0 | 0.00 | 0.00 | 0.00 | 97 | 1014.9 |
| 20260902132410 | 68 | 110 | 0.0 | 1.0 | 0.00 | 0.00 | 0.00 | 97 | 1014.9 |
| 20260902131909 | 68 | 109 | 0.0 | 2.0 | 0.00 | 0.00 | 0.00 | 98 | 1014.8 |
| 20260902131410 | 68 | 119 | 0.0 | 1.0 | 0.00 | 0.00 | 0.00 | 98 | 1014.7 |
| 20260902130909 | 68 | 128 | 0.0 | 2.0 | 0.00 | 0.00 | 0.00 | 98 | 1014.6 |
| 20260902125916 | 68 | 72 | 0.0 | 1.0 | 0.00 | 0.00 | 0.00 | 98 | 1014.6 |
| 20260902125408 | 68 | 128 | 0.0 | 1.0 | 0.00 | 0.00 | 0.00 | 98 | 1014.5 |
| 20260902123908 | 68 | 83 | 0.0 | 1.0 | 0.00 | 0.00 | 0.00 | 98 | 1014.2 |
| 20260902123409 | 68 | 75 | 0.0 | 2.0 | 0.00 | 0.00 | 0.00 | 98 | 1014.0 |
| 20260902122909 | 68 | 114 | 0.0 | 2.0 | 0.00 | 0.00 | 0.00 | 98 | 1013.7 |
| 20260902122408 | 68 | 115 | 0.0 | 1.0 | 0.00 | 0.00 | 0.00 | 98 | 1013.5 |
| 20260902121909 | 68 | 136 | 0.0 | 1.0 | 0.00 | 0.00 | 0.00 | 98 | 1013.4 |
| 20260902121409 | 68 | 117 | 0.0 | 1.0 | 0.00 | 0.00 | 0.00 | 98 | 1013.2 |
| 20260902115909 | 67 | 134 | 0.0 | 1.0 | 0.00 | 0.00 | 0.00 | 98 | 1012.9 |
| 20260902115409 | 67 | 102 | 0.0 | 1.0 | 0.00 | 0.00 | 0.00 | 98 | 1012.6 |
| 20260902114909 | 67 | 123 | 0.0 | 1.0 | 0.00 | 0.00 | 0.00 | 98 | 1012.6 |
| 20260902114415 | 67 | 80 | 0.0 | 1.0 | 0.00 | 0.00 | 0.00 | 97 | 1012.6 |
| 20260902113909 | 67 | 92 | 0.0 | 1.0 | 0.00 | 0.00 | 0.00 | 97 | 1012.6 |
| 20260902112909 | 67 | 92 | 0.0 | 1.0 | 0.00 | 0.00 | 0.00 | 97 | 1012.5 |
| 20260902112409 | 67 | 102 | 0.0 | 1.0 | 0.00 | 0.00 | 0.00 | 97 | 1012.7 |
| 20260902111909 | 67 | 125 | 0.0 | 1.0 | 0.00 | 0.00 | 0.00 | 97 | 1012.8 |
| 20260902111415 | 67 | 132 | 0.0 | 1.0 | 0.00 | 0.00 | 0.00 | 97 | 1012.7 |
| 20260902110908 | 68 | 250 | 0.0 | 1.0 | 0.00 | 0.00 | 0.00 | 97 | 1012.6 |
| 20260902110409 | 68 | 60 | 0.0 | 1.0 | 0.00 | 0.00 | 0.00 | 97 | 1012.6 |
| 20260902105908 | 68 | 92 | 0.0 | 1.0 | 0.00 | 0.00 | 0.00 | 97 | 1012.6 |
| 20260902105408 | 68 | 96 | 0.0 | 1.0 | 0.00 | 0.00 | 0.00 | 97 | 1012.4 |
| 20260902104909 | 68 | 111 | 0.0 | 1.0 | 0.00 | 0.00 | 0.00 | 97 | 1012.4 |
| 20260902103909 | 68 | 152 | 0.0 | 1.0 | 0.00 | 0.00 | 0.00 | 97 | 1012.7 |
| 20260902103409 | 68 | 103 | 0.0 | 1.0 | 0.00 | 0.00 | 0.00 | 98 | 1012.6 |
| 20260902102908 | 68 | 89 | 0.0 | 1.0 | 0.00 | 0.00 | 0.00 | 98 | 1012.6 |
| 20260902102408 | 68 | 83 | 0.0 | 1.0 | 0.00 | 0.00 | 0.00 | 98 | 1012.7 |
| 20260902101909 | 69 | 128 | 0.0 | 1.0 | 0.00 | 0.00 | 0.00 | 98 | 1012.6 |
| 20260902101416 | 69 | 124 | 0.0 | 1.0 | 0.00 | 0.00 | 0.00 | 98 | 1012.5 |
| 20260902100908 | 69 | 107 | 0.0 | 1.0 | 0.00 | 0.00 | 0.00 | 98 | 1012.4 |
| 20260902100408 | 69 | 137 | 0.0 | 1.0 | 0.00 | 0.00 | 0.00 | 98 | 1012.4 |
| 20260902095408 | 69 | 65 | 0.0 | 1.0 | 0.00 | 0.00 | 0.00 | 98 | 1012.6 |
| 20260902094908 | 69 | 103 | 0.0 | 1.0 | 0.00 | 0.00 | 0.00 | 98 | 1012.4 |
| 20260902093908 | 69 | 117 | 0.0 | 1.0 | 0.00 | 0.00 | 0.00 | 98 | 1012.5 |
| 20260902093409 | 69 | 116 | 0.0 | 1.0 | 0.00 | 0.00 | 0.00 | 98 | 1012.5 |
| 20260902092909 | 69 | 106 | 0.0 | 2.0 | 0.00 | 0.00 | 0.00 | 98 | 1012.5 |